When you browse on this site, cookies collect data to enhance your experience and personalize the content and advertising you see.
Visit our Privacy Policy to learn more. By continuing to use the site, you agree to this use of cookies and data.

Hourly Weather Valgus

Today, 11 August, Tuesday

Time Temperature Precipitation Wind Pressure Humidity
00:00 +12°C° 0 mm 3 mps 743 mmHg 91%
01:00 +12°C° 0 mm 3 mps 743 mmHg 92%
02:00 +12°C° 0 mm 3 mps 743 mmHg 94%
03:00 +11°C° 0 mm 3 mps 744 mmHg 97%
04:00 +12°C° 0 mm 3 mps 743 mmHg 96%
05:00 +12°C° 0 mm 3 mps 743 mmHg 94%
06:00 +12°C° 0 mm 3 mps 743 mmHg 93%
07:00 +13°C° 0.1 mm 3 mps 743 mmHg 90%
08:00 +13°C° 0.1 mm 3 mps 743 mmHg 87%
09:00 +14°C° 0 mm 3 mps 744 mmHg 82%
10:00 +14°C° 0.2 mm 3 mps 744 mmHg 81%
11:00 +14°C° 0.2 mm 3 mps 743 mmHg 80%
12:00 +14°C° 0.2 mm 4 mps 743 mmHg 79%
13:00 +15°C° 0.2 mm 4 mps 743 mmHg 78%
14:00 +15°C° 0.2 mm 4 mps 743 mmHg 78%
15:00 +15°C° 0.2 mm 4 mps 743 mmHg 77%
16:00 +15°C° 0.1 mm 4 mps 743 mmHg 77%
17:00 +15°C° 0.1 mm 4 mps 743 mmHg 78%
18:00 +14°C° 0.1 mm 3 mps 743 mmHg 79%
19:00 +13°C° 0.2 mm 3 mps 743 mmHg 84%
20:00 +12°C° 0.2 mm 3 mps 743 mmHg 89%
21:00 +11°C° 0.2 mm 3 mps 743 mmHg 94%
22:00 +11°C° 0.1 mm 3 mps 743 mmHg 95%
23:00 +10°C° 0.1 mm 3 mps 743 mmHg 96%

Tomorrow, 12 August, Wednesday

Time Temperature Precipitation Wind Pressure Humidity
00:00 +10°C° 0.1 mm 3 mps 743 mmHg 97%
01:00 +11°C° 0.3 mm 4 mps 743 mmHg 96%
02:00 +12°C° 0.3 mm 4 mps 743 mmHg 95%
03:00 +13°C° 0.3 mm 4 mps 743 mmHg 94%
04:00 +12°C° 0.1 mm 5 mps 743 mmHg 93%
05:00 +12°C° 0.1 mm 5 mps 743 mmHg 93%
06:00 +12°C° 0.1 mm 5 mps 743 mmHg 93%
07:00 +12°C° 0.1 mm 5 mps 743 mmHg 91%
08:00 +11°C° 0.1 mm 6 mps 743 mmHg 90%
09:00 +11°C° 0.1 mm 6 mps 743 mmHg 89%
10:00 +11°C° 0.5 mm 6 mps 744 mmHg 91%
11:00 +11°C° 0.5 mm 6 mps 744 mmHg 92%
12:00 +11°C° 0.5 mm 6 mps 744 mmHg 93%
13:00 +11°C° 0.2 mm 6 mps 744 mmHg 92%
14:00 +11°C° 0.2 mm 6 mps 744 mmHg 92%
15:00 +11°C° 0.2 mm 6 mps 745 mmHg 91%
16:00 +13°C° 0.1 mm 5 mps 745 mmHg 87%
17:00 +13°C° 0.1 mm 5 mps 745 mmHg 84%
18:00 +13°C° 0.1 mm 4 mps 745 mmHg 80%
19:00 +13°C° 0.1 mm 4 mps 745 mmHg 79%
20:00 +13°C° 0.1 mm 4 mps 745 mmHg 77%
21:00 +13°C° 0.1 mm 4 mps 745 mmHg 76%
22:00 +12°C° 0 mm 4 mps 745 mmHg 78%
23:00 +12°C° 0 mm 3 mps 745 mmHg 80%

Day after tomorrow, 13 August, Thursday

Time Temperature Precipitation Wind Pressure Humidity
00:00 +11°C° 0 mm 3 mps 745 mmHg 82%
01:00 +11°C° 0 mm 3 mps 745 mmHg 82%
02:00 +10°C° 0 mm 3 mps 745 mmHg 82%
03:00 +10°C° 0 mm 3 mps 745 mmHg 83%
04:00 +10°C° 0 mm 3 mps 745 mmHg 82%
05:00 +11°C° 0 mm 3 mps 745 mmHg 81%
06:00 +11°C° 0 mm 3 mps 745 mmHg 81%
07:00 +11°C° 0 mm 3 mps 745 mmHg 80%
08:00 +12°C° 0 mm 3 mps 745 mmHg 79%
09:00 +12°C° 0 mm 3 mps 745 mmHg 78%
10:00 +13°C° 0 mm 3 mps 745 mmHg 73%
11:00 +14°C° 0 mm 3 mps 745 mmHg 69%
12:00 +14°C° 0 mm 3 mps 745 mmHg 64%
13:00 +16°C° 0 mm 3 mps 745 mmHg 62%
14:00 +16°C° 0 mm 3 mps 745 mmHg 59%
15:00 +17°C° 0 mm 3 mps 745 mmHg 57%
16:00 +16°C° 0.1 mm 3 mps 745 mmHg 62%
17:00 +14°C° 0.1 mm 3 mps 745 mmHg 67%
18:00 +13°C° 0.1 mm 3 mps 745 mmHg 72%
19:00 +12°C° 0 mm 3 mps 745 mmHg 75%
20:00 +12°C° 0 mm 2 mps 745 mmHg 79%
21:00 +10°C° 0 mm 2 mps 745 mmHg 83%
22:00 +9°C° 0.1 mm 2 mps 745 mmHg 85%
23:00 +9°C° 0.1 mm 2 mps 745 mmHg 87%

14 August, Friday

Time Temperature Precipitation Wind Pressure Humidity
00:00 +9°C° 0.1 mm 2 mps 745 mmHg 89%
01:00 +9°C° 0.1 mm 2 mps 745 mmHg 90%
02:00 +8°C° 0.1 mm 3 mps 745 mmHg 92%
03:00 +8°C° 0.1 mm 3 mps 745 mmHg 93%
04:00 +8°C° 0 mm 3 mps 745 mmHg 93%
05:00 +8°C° 0 mm 3 mps 745 mmHg 93%
06:00 +8°C° 0 mm 3 mps 746 mmHg 93%
07:00 +10°C° 0 mm 3 mps 746 mmHg 85%
08:00 +11°C° 0 mm 3 mps 746 mmHg 78%
09:00 +13°C° 0 mm 4 mps 746 mmHg 71%
10:00 +14°C° 0 mm 4 mps 746 mmHg 66%
11:00 +15°C° 0 mm 4 mps 746 mmHg 61%
12:00 +17°C° 0 mm 4 mps 746 mmHg 56%
13:00 +17°C° 0.1 mm 3 mps 746 mmHg 56%
14:00 +17°C° 0.1 mm 3 mps 746 mmHg 56%
15:00 +17°C° 0.1 mm 3 mps 746 mmHg 56%
16:00 +17°C° 0.1 mm 3 mps 746 mmHg 61%
17:00 +17°C° 0.1 mm 2 mps 746 mmHg 65%
18:00 +16°C° 0.1 mm 2 mps 746 mmHg 70%
19:00 +15°C° 0.1 mm 2 mps 746 mmHg 75%
20:00 +13°C° 0.1 mm 2 mps 746 mmHg 80%
21:00 +10°C° 0.1 mm 2 mps 746 mmHg 85%
22:00 +10°C° 0 mm 2 mps 747 mmHg 86%
23:00 +9°C° 0 mm 2 mps 747 mmHg 86%

15 August, Saturday

Time Temperature Precipitation Wind Pressure Humidity
00:00 +9°C° 0 mm 2 mps 747 mmHg 87%
01:00 +8°C° 0 mm 2 mps 747 mmHg 87%
02:00 +8°C° 0 mm 2 mps 747 mmHg 87%
03:00 +7°C° 0 mm 2 mps 747 mmHg 87%
04:00 +7°C° 0 mm 2 mps 747 mmHg 88%
05:00 +7°C° 0 mm 2 mps 748 mmHg 88%
06:00 +7°C° 0 mm 2 mps 748 mmHg 88%
07:00 +9°C° 0 mm 2 mps 748 mmHg 81%
08:00 +12°C° 0 mm 3 mps 748 mmHg 73%
09:00 +14°C° 0 mm 3 mps 748 mmHg 65%
10:00 +16°C° 0 mm 3 mps 748 mmHg 60%
11:00 +17°C° 0 mm 3 mps 748 mmHg 56%
12:00 +18°C° 0 mm 3 mps 748 mmHg 51%
13:00 +18°C° 0 mm 3 mps 748 mmHg 52%
14:00 +19°C° 0 mm 3 mps 748 mmHg 52%
15:00 +19°C° 0 mm 2 mps 748 mmHg 52%
16:00 +19°C° 0 mm 2 mps 748 mmHg 57%
17:00 +19°C° 0 mm 2 mps 747 mmHg 62%
18:00 +19°C° 0 mm 1 mps 747 mmHg 66%
19:00 +18°C° 0 mm 1 mps 747 mmHg 71%
20:00 +15°C° 0 mm 1 mps 747 mmHg 76%
21:00 +14°C° 0 mm 1 mps 747 mmHg 81%
22:00 +14°C° 0 mm 1 mps 747 mmHg 81%
23:00 +14°C° 0 mm 1 mps 747 mmHg 81%

16 August, Sunday

Time Temperature Precipitation Wind Pressure Humidity
00:00 +14°C° 0 mm 2 mps 747 mmHg 81%
01:00 +13°C° 0 mm 2 mps 747 mmHg 82%
02:00 +13°C° 0 mm 2 mps 747 mmHg 84%
03:00 +13°C° 0 mm 2 mps 747 mmHg 85%
04:00 +13°C° 0 mm 2 mps 747 mmHg 85%
05:00 +13°C° 0 mm 2 mps 747 mmHg 85%
06:00 +13°C° 0 mm 2 mps 747 mmHg 84%
07:00 +14°C° 0 mm 2 mps 747 mmHg 80%
08:00 +15°C° 0 mm 2 mps 747 mmHg 77%
09:00 +17°C° 0 mm 3 mps 747 mmHg 73%
10:00 +17°C° 0 mm 3 mps 747 mmHg 74%
11:00 +17°C° 0 mm 3 mps 746 mmHg 74%
12:00 +17°C° 0 mm 3 mps 746 mmHg 75%
13:00 +18°C° 0.1 mm 3 mps 746 mmHg 73%
14:00 +19°C° 0.1 mm 3 mps 746 mmHg 71%
15:00 +20°C° 0.1 mm 3 mps 746 mmHg 69%
16:00 +20°C° 0.1 mm 3 mps 746 mmHg 72%
17:00 +19°C° 0.1 mm 3 mps 745 mmHg 76%
18:00 +19°C° 0.1 mm 3 mps 745 mmHg 79%
19:00 +18°C° 0 mm 3 mps 745 mmHg 84%
20:00 +17°C° 0 mm 2 mps 745 mmHg 89%
21:00 +15°C° 0 mm 2 mps 745 mmHg 93%
22:00 +15°C° 0 mm 2 mps 745 mmHg 93%
23:00 +15°C° 0 mm 2 mps 745 mmHg 92%
Show more